SCP
0 0 0 0 0 0 0 0 0 0 0 0 0 0 0 0 0 0 0 0 0 0 0 0 0 0 0 0 0 0 0 0 0 0 0 0 0 1 1 1 1 1 1
0 0 0 0 0 0 0 0 0 0 0 0 0 0 0 0 0 0 0 0 0 0 0 0 0 0 0 0 0 0 0 0 0 0 0 0 0 1 1 1 1 1 1
0 0 0 0 0 0 0 0 0 0 0 0 0 0 0 0 0 0 0 0 0 0 0 0 0 0 0 0 0 0 0 0 0 0 0 0 0 1 1 1 1 1 1
0 0 0 0 0 0 0 0 0 0 0 0 0 0 0 0 0 0 0 0 0 0 0 0 0 0 0 0 0 0 0 0 0 0 0 0 0 1 1 1 1 1 1
0 0 0 0 0 0 0 0 0 0 0 0 0 0 0 0 0 0 0 0 0 0 0 0 0 0 0 0 0 0 0 0 0 0 0 0 0 1 1 1 1 1 1
0 0 0 0 0 0 0 0 0 0 0 0 0 0 0 0 0 0 0 0 0 0 0 0 0 0 0 0 0 0 0 0 0 0 0 0 0 0 0 0 1 1 1
0 0 0 0 0 0 1 1 1 0 0 0 0 0 0 0 0 0 0 0 0 0 0 0 0 0 0 0 0 0 0 0 0 0 0 0 0 0 0 0 0 0 0
0 0 0 0 0 0 0 1 1 1 0 0 0 0 0 0 0 0 0 0 0 0 0 0 0 0 0 0 0 0 0 0 0 0 0 0 0 0 0 0 0 0 0
0 0 0 0 0 0 0 1 1 1 1 0 0 0 0 0 0 0 0 0 0 0 0 0 0 0 0 0 0 0 0 0 0 0 0 0 0 0 0 0 0 0 0
0 0 0 0 0 0 0 0 1 1 1 1 0 0 0 0 0 0 0 0 0 0 0 0 0 0 0 0 0 0 0 0 0 0 0 0 0 0 0 0 0 0 0
0 0 0 0 0 0 0 0 0 1 1 1 1 1 0 0 0 0 0 0 0 0 0 0 0 0 0 0 0 0 0 0 0 0 0 0 0 0 0 0 0 0 0
0 0 0 0 0 0 0 0 0 0 1 1 1 1 1 0 0 0 0 0 0 0 0 0 0 0 0 0 0 0 0 0 0 0 0 0 0 0 0 0 0 0 0
0 0 0 0 0 0 0 0 0 0 0 1 1 1 1 1 0 0 0 0 0 0 0 0 0 0 0 0 0 0 0 0 0 0 0 0 0 0 0 0 0 0 0
0 0 0 0 0 0 0 0 0 0 0 0 0 1 1 1 1 0 0 0 0 0 0 0 0 0 0 0 1 1 1 1 1 0 0 0 0 0 0 0 0 0 0
0 0 0 0 0 0 0 0 0 0 0 0 0 0 1 1 1 0 0 0 0 0 0 1 1 1 1 1 2 2 2 2 1 1 0 0 0 0 0 0 0 0 0
0 0 0 0 0 0 0 0 0 0 0 0 0 0 0 0 0 0 0 0 0 0 0 1 1 1 1 1 2 3 3 3 2 1 1 0 0 0 0 0 0 0 0
0 0 0 0 0 0 0 0 0 0 0 0 0 0 0 0 0 0 0 0 0 0 0 1 1 1 1 1 2 2 3 3 2 2 1 0 0 0 0 0 0 0 0
0 0 0 0 0 0 0 0 0 0 0 0 0 0 0 0 0 0 0 0 0 0 0 1 1 1 1 1 1 2 2 2 2 2 1 1 0 0 0 0 0 0 0
0 0 0 0 0 0 0 0 0 0 0 0 0 0 0 0 0 0 0 0 0 0 0 1 1 1 1 1 1 1 2 2 2 2 1 1 0 0 0 0 0 0 0
0 0 0 0 0 0 0 0 0 0 0 0 0 0 0 0 0 0 0 0 0 0 0 1 1 1 1 1 1 1 1 1 1 1 1 1 0 0 0 0 0 0 1
0 0 0 0 0 0 0 0 0 0 0 0 0 0 0 0 0 0 0 0 0 0 1 1 1 1 1 1 1 1 1 1 1 0 0 0 0 0 0 0 0 1 1
0 0 0 0 0 0 0 0 0 0 0 0 0 0 0 0 0 0 0 0 0 0 1 1 1 1 1 1 1 1 1 1 0 0 0 0 0 0 0 0 0 1 1
0 0 0 0 0 0 0 0 0 0 0 0 0 0 0 0 0 0 0 0 0 0 0 1 1 1 1 1 1 1 1 0 0 0 0 0 0 0 0 0 0 0 0
0 0 0 0 0 0 0 0 0 0 0 0 0 0 0 0 0 0 0 0 0 0 0 0 1 1 1 1 1 1 0 0 0 0 0 0 0 0 0 0 0 0 0
0 0 0 0 0 0 0 0 0 0 0 0 0 0 0 0 0 0 0 0 0 0 0 0 0 0 0 0 0 0 0 0 0 0 0 0 0 0 0 0 0 0 0
0 0 0 0 0 0 0 0 0 0 0 0 0 0 0 0 0 0 0 0 0 0 0 0 0 0 0 0 0 0 0 0 0 0 0 0 0 0 0 0 0 0 0
Wind_Speed
6 7 7 7 7 7 7 6 6 6 6 5 5 5 4 4 3 3 4 3 3 2 2 2 1 2 1 1 1 1 1 2 1 1 1 1 2 2 1 1 1 2 4
5 6 7 7 7 8 8 7 8 7 6 6 5 6 5 5 4 4 4 4 4 3 2 2 2 1 2 1 1 2 1 2 2 2 2 2 2 1 1 1 1 1 2
3 5 6 7 8 8 8 8 8 8 8 7 7 7 6 6 5 5 5 5 4 3 3 3 2 2 2 2 2 2 2 2 2 2 2 1 1 1 1 1 1 1 1
2 3 5 6 7 8 8 8 9 9 9 8 8 8 7 7 6 6 5 5 5 4 4 4 4 4 3 2 2 3 2 2 2 2 2 2 2 2 2 2 1 1 1
4 4 4 5 6 7 7 8 9 9 10 9 9 9 8 7 6 7 6 6 6 6 5 5 4 2 2 3 2 2 3 3 3 3 2 2 3 3 2 2 2 1 2
5 5 5 6 6 6 7 8 9 10 10 10 10 10 9 7 6 7 8 8 7 7 7 6 5 6 6 7 5 4 4 4 3 3 3 3 3 3 2 2 2 2 2
6 6 6 6 6 7 7 7 8 9 10 11 11 11 11 10 9 10 12 9 9 8 8 7 5 5 6 7 8 8 7 5 5 5 4 4 3 3 4 4 3 3 1
8 8 7 7 7 7 7 8 8 8 9 10 11 11 11 11 11 12 12 12 10 10 9 9 8 8 8 7 7 7 7 6 6 6 5 3 2 2 4 3 2 2 2
9 9 9 8 8 8 8 8 8 8 9 9 10 11 12 13 13 14 13 11 10 12 11 10 10 10 7 7 8 8 7 6 4 2 2 1 2 1 1 3 4 4 3
9 9 9 9 9 8 9 9 8 7 8 9 9 11 12 13 11 14 16 11 11 11 10 10 10 10 9 12 11 9 9 7 7 7 6 6 6 6 6 6 4 4 3
8 9 9 9 9 9 9 8 8 7 8 8 9 9 11 12 11 13 16 12 11 11 10 9 9 13 12 14 13 10 7 6 7 7 6 6 6 5 6 6 4 3 3
8 8 9 9 9 8 8 8 8 8 8 8 8 9 8 9 10 11 15 18 14 13 10 10 8 14 16 15 13 9 7 7 7 7 7 6 6 6 5 5 5 3 2
8 9 9 9 8 8 9 9 8 7 7 7 7 8 8 7 7 10 14 17 16 13 11 10 8 11 14 13 14 12 11 9 8 8 8 7 6 6 5 5 5 4 3
9 9 9 9 9 9 7 7 7 7 7 8 8 8 9 8 7 6 7 9 12 13 12 10 10 11 10 9 10 12 11 10 9 9 8 7 6 6 6 6 6 6 5
10 9 9 8 9 9 8 7 8 8 7 9 9 9 10 10 8 8 8 8 8 9 10 9 10 10 11 11 11 11 10 10 10 9 8 8 8 7 7 6 6 6 6
9 9 8 8 8 8 9 9 7 9 11 13 14 13 12 13 15 13 13 13 13 11 10 11 11 12 12 12 12 11 11 11 11 10 10 9 9 8 8 7 7 7 6
10 9 8 8 8 9 9 10 10 9 10 12 13 14 14 16 17 15 14 13 13 12 12 12 12 12 12 12 12 12 12 11 10 10 10 10 9 9 8 8 8 7 7
10 9 9 8 8 9 9 10 10 11 11 10 9 11 12 14 15 15 13 10 9 10 12 12 12 12 12 12 12 11 11 11 11 11 11 10 10 10 9 9 9 9 8
10 8 8 9 9 10 10 10 10 12 11 11 11 10 9 11 13 13 10 9 9 10 11 12 12 11 11 11 11 11 11 11 12 11 11 11 10 10 10 10 9 9 8
9 10 10 10 10 10 10 10 10 11 11 11 11 11 10 10 10 9 8 8 9 9 10 11 11 11 10 10 10 10 11 11 12 12 11 11 11 10 11 11 10 10 9
9 9 11 11 10 10 10 10 11 11 11 11 11 11 11 11 11 11 10 9 9 10 10 10 10 10 10 9 9 11 13 11 11 11 11 11 11 11 10 10 10 10 9
9 10 10 10 10 10 10 11 11 12 13 14 12 12 12 11 11 11 11 10 10 10 9 9 9 8 9 9 10 11 12 12 12 12 12 11 11 11 11 10 10 10 10
11 11 11 11 11 11 11 12 12 12 13 13 13 12 11 11 11 11 12 11 10 10 9 9 9 8 9 9 10 11 12 12 12 12 12 12 12 11 11 12 13 12 12
11 12 12 12 11 11 12 12 12 13 13 13 13 12 12 11 12 13 12 11 10 10 9 9 9 12 14 11 10 10 11 11 12 12 16 13 13 12 11 12 12 14 12
11 12 12 12 12 12 12 13 13 13 13 13 13 12 12 12 12 12 12 11 11 11 12 10 9 10 14 15 13 11 11 13 12 11 12 12 14 13 13 14 12 12 12
12 12 12 11 11 12 12 12 13 13 13 13 13 13 12 12 12 11 11 10 10 9 10 9 11 12 13 13 14 12 13 14 15 14 12 11 13 12 13 12 14 13 13
Wind_Direction
234 229 229 227 229 229 236 238 243 246 242 243 253 262 264 266 264 256 278 276 283 277 252 273 285 305 275 236 230 234 243 250 203 142 147 163 187 185 161 175 186 195 144
253 243 239 236 232 235 234 236 239 245 249 249 247 255 258 263 264 262 262 261 268 274 264 258 254 237 253 251 240 227 216 243 227 186 177 179 195 180 178 201 208 183 156
272 259 252 247 244 244 243 239 242 242 245 244 238 246 252 254 253 250 249 250 250 252 249 253 257 248 237 213 229 226 212 218 232 216 189 170 205 180 180 201 203 194 187
308 277 267 261 257 256 255 250 247 245 244 247 246 244 247 248 249 248 245 245 246 245 240 241 245 242 243 230 221 218 217 218 217 218 201 191 193 186 214 202 189 177 198
341 318 302 288 276 268 262 254 252 249 246 245 249 248 244 244 246 250 244 242 242 239 236 234 232 247 315 281 269 235 217 224 216 217 212 208 202 197 206 203 207 197 176
356 340 330 311 299 283 273 264 255 251 250 247 245 246 245 240 220 228 252 246 242 240 237 233 217 208 215 222 246 274 285 255 235 222 222 221 221 209 200 221 210 210 188
6 357 346 328 313 301 290 276 264 256 252 248 244 243 242 239 211 212 225 249 248 246 245 234 224 215 212 214 203 212 229 251 269 267 244 231 226 207 207 213 216 230 219
8 359 350 338 326 314 301 288 277 266 254 248 245 242 241 238 213 214 215 233 244 243 240 239 231 222 212 222 216 212 216 210 218 233 245 241 232 209 221 233 219 215 201
5 355 348 340 331 323 313 301 293 282 270 257 249 244 243 241 213 209 212 232 236 238 236 234 234 231 191 201 227 222 218 211 190 231 331 19 64 64 254 213 201 208 207
355 347 343 338 331 325 319 312 303 290 280 273 261 252 248 249 224 205 211 233 236 235 232 230 224 236 194 190 221 224 223 216 202 188 197 199 200 187 209 227 219 224 221
344 339 339 335 329 325 321 318 310 301 291 282 274 262 254 251 237 209 209 231 236 236 231 228 219 199 205 201 222 232 225 226 214 210 206 199 198 195 193 206 217 236 238
335 333 333 333 330 327 322 317 313 308 297 290 286 279 265 254 245 226 212 224 241 241 238 234 222 187 198 203 212 219 198 208 224 214 211 205 199 195 192 189 187 194 233
326 327 326 325 327 325 320 317 313 312 305 300 296 291 283 271 251 227 221 224 230 238 242 240 225 189 194 204 212 202 195 210 217 216 214 208 202 192 180 174 175 171 164
320 321 321 322 323 322 319 316 316 314 311 307 301 297 293 284 271 259 242 231 225 231 239 230 209 198 209 222 198 198 210 214 214 216 213 204 193 185 185 181 181 180 179
311 312 315 317 316 314 314 312 307 306 306 301 302 298 295 289 288 288 273 257 245 237 235 227 218 210 209 212 212 206 205 206 210 214 209 201 194 192 190 187 189 192 198
308 311 311 311 311 310 309 307 285 274 281 274 273 280 289 290 297 286 271 262 253 243 234 228 221 218 216 213 210 207 206 207 206 205 205 202 198 196 190 187 190 197 199
299 303 305 306 306 305 305 306 308 300 280 270 270 273 274 286 290 282 271 262 248 225 226 230 226 221 219 216 213 210 208 205 203 202 202 201 199 197 193 189 191 195 196
294 296 295 295 297 299 301 303 303 306 308 306 294 281 277 279 282 278 270 260 247 224 229 230 229 225 221 217 213 210 207 202 200 201 201 199 197 196 194 193 192 192 187
293 293 297 298 295 294 296 297 298 300 301 303 304 301 293 289 284 273 256 252 249 240 235 234 231 228 224 219 213 208 204 201 198 198 199 196 195 194 195 194 189 181 185
287 284 285 290 291 291 293 294 296 298 299 300 301 304 309 307 300 294 277 264 256 248 242 239 234 229 224 219 211 205 204 202 198 198 197 194 194 194 193 190 186 182 188
286 285 280 281 285 290 292 293 294 295 296 297 297 300 301 296 292 289 284 273 263 255 248 244 238 229 221 216 210 206 205 202 199 196 194 192 190 190 189 186 185 185 183
285 286 286 287 287 287 290 292 292 291 293 293 294 295 290 283 285 287 284 279 272 264 255 247 241 232 219 213 210 207 205 202 198 195 192 189 186 185 183 183 182 180 179
279 282 285 285 285 284 282 283 287 289 290 292 292 294 294 290 289 287 285 281 279 272 261 250 242 234 224 216 213 210 207 202 195 189 187 185 183 183 182 182 181 179 180
279 281 284 285 286 286 286 287 289 289 290 291 291 291 291 289 288 289 287 282 278 273 263 252 243 235 228 220 213 211 207 199 192 190 187 183 182 181 180 179 179 179 180
277 280 282 284 285 285 287 288 288 289 290 291 290 289 289 288 286 287 287 284 280 272 266 257 246 236 228 222 215 209 195 184 186 183 181 181 181 178 176 175 175 174 174
277 279 281 283 284 284 285 287 288 290 290 290 289 288 287 287 285 284 284 282 277 271 267 257 245 237 229 223 215 200 180 174 174 176 178 175 175 175 173 173 172 172 171